GFSNW_prec_precacc24_108.txt.gz
Total_Precipitation_Accumulation
0.02 0.01 0.00 0.00 0.03 0.02 0.00 0.00 0.01 0.02 0.20 0.25 0.20 0.08 0.02 0.01 0.00 0.00 0.04 0.23 0.43 0.52 0.56 0.52 1.04 0.58 0.31 0.04 0.17 0.22 0.04 0.17 0.06 0.04 0.02 0.02 0.02 0.02 0.05 0.19 0.33 0.54 0.92 1.22
0.02 0.01 0.00 0.02 0.05 0.01 0.00 0.00 0.01 0.00 0.10 0.40 0.12 0.01 0.00 0.00 0.00 0.00 0.02 0.09 0.43 0.62 0.67 0.79 0.72 0.67 0.20 0.01 0.02 0.05 0.09 0.15 0.16 0.20 0.12 0.28 0.11 0.07 0.06 0.16 0.37 0.55 0.67 1.37
0.02 0.01 0.00 0.03 0.08 0.03 0.00 0.00 0.02 0.00 0.15 0.17 0.11 0.10 0.06 0.07 0.01 0.10 0.08 0.14 0.44 0.52 0.48 0.40 0.54 0.60 0.18 0.06 0.01 0.01 0.05 0.11 0.16 0.22 0.14 0.26 0.24 0.23 0.16 0.36 0.46 0.47 0.42 0.56
0.02 0.01 0.00 0.01 0.09 0.07 0.00 0.00 0.00 0.00 0.06 0.13 0.08 0.20 0.31 0.32 0.28 0.16 0.12 0.19 0.20 0.23 0.39 0.23 0.22 0.33 0.23 0.14 0.05 0.07 0.08 0.30 0.24 0.14 0.27 0.18 0.29 0.59 0.53 0.38 0.27 0.47 0.45 0.32
0.02 0.01 0.00 0.01 0.08 0.12 0.03 0.01 0.01 0.01 0.00 0.01 0.05 0.15 0.26 0.24 0.11 0.09 0.06 0.04 0.04 0.05 0.11 0.16 0.09 0.09 0.23 0.21 0.10 0.23 0.11 0.36 0.54 0.41 0.27 0.19 0.27 0.42 0.20 0.16 0.39 0.40 0.17 0.36
0.01 0.01 0.01 0.02 0.11 0.25 0.12 0.02 0.02 0.03 0.00 0.00 0.00 0.06 0.07 0.07 0.05 0.05 0.01 0.00 0.00 0.00 0.00 0.00 0.00 0.01 0.04 0.02 0.04 0.08 0.07 0.09 0.19 0.23 0.10 0.04 0.25 0.22 0.03 0.08 0.08 0.07 0.10 0.28
0.03 0.03 0.03 0.04 0.12 0.22 0.15 0.04 0.05 0.06 0.02 0.00 0.00 0.00 0.00 0.00 0.00 0.01 0.00 0.00 0.00 0.00 0.00 0.00 0.00 0.00 0.01 0.00 0.00 0.01 0.01 0.01 0.01 0.01 0.06 0.20 0.35 0.10 0.04 0.01 0.01 0.00 0.01 0.05
0.03 0.03 0.03 0.03 0.09 0.20 0.16 0.09 0.08 0.06 0.02 0.00 0.00 0.00 0.00 0.00 0.00 0.00 0.00 0.00 0.00 0.00 0.00 0.00 0.01 0.01 0.03 0.00 0.00 0.00 0.00 0.00 0.03 0.06 0.07 0.16 0.09 0.01 0.01 0.06 0.05 0.01 0.01 0.05
0.04 0.02 0.01 0.02 0.05 0.17 0.17 0.06 0.04 0.05 0.04 0.02 0.00 0.00 0.00 0.00 0.00 0.00 0.00 0.00 0.00 0.00 0.00 0.01 0.06 0.04 0.03 0.04 0.01 0.00 0.00 0.00 0.04 0.04 0.04 0.13 0.08 0.00 0.00 0.01 0.07 0.03 0.01 0.01
0.04 0.02 0.01 0.01 0.03 0.13 0.22 0.13 0.04 0.10 0.05 0.01 0.00 0.00 0.00 0.00 0.00 0.00 0.00 0.00 0.00 0.00 0.02 0.07 0.06 0.09 0.00 0.06 0.03 0.00 0.00 0.00 0.00 0.00 0.02 0.02 0.00 0.00 0.00 0.05 0.16 0.06 0.06 0.04
0.03 0.03 0.01 0.01 0.02 0.07 0.24 0.28 0.07 0.08 0.06 0.01 0.00 0.00 0.00 0.00 0.01 0.01 0.00 0.02 0.01 0.01 0.04 0.03 0.02 0.03 0.01 0.08 0.06 0.02 0.02 0.06 0.03 0.02 0.04 0.05 0.01 0.00 0.04 0.11 0.09 0.06 0.09 0.08
0.02 0.02 0.01 0.01 0.01 0.05 0.20 0.31 0.13 0.13 0.16 0.02 0.00 0.00 0.00 0.00 0.00 0.01 0.00 0.02 0.04 0.09 0.16 0.08 0.04 0.03 0.02 0.02 0.22 0.03 0.06 0.07 0.09 0.07 0.13 0.15 0.05 0.05 0.08 0.06 0.07 0.11 0.13 0.10
0.04 0.02 0.02 0.01 0.02 0.05 0.19 0.28 0.19 0.38 0.31 0.05 0.00 0.02 0.01 0.00 0.00 0.00 0.01 0.06 0.03 0.09 0.24 0.20 0.10 0.08 0.06 0.08 0.10 0.06 0.07 0.31 0.60 0.57 0.47 0.19 0.10 0.08 0.09 0.11 0.22 0.20 0.09 0.12
0.05 0.03 0.03 0.03 0.04 0.08 0.21 0.25 0.10 0.22 0.25 0.06 0.05 0.02 0.01 0.00 0.00 0.00 0.00 0.02 0.00 0.01 0.10 0.08 0.06 0.04 0.07 0.08 0.10 0.08 0.17 0.25 0.28 0.62 0.52 0.33 0.19 0.22 0.17 0.14 0.11 0.07 0.03 0.02
0.06 0.05 0.04 0.04 0.09 0.15 0.30 0.30 0.17 0.13 0.23 0.16 0.03 0.04 0.01 0.00 0.00 0.00 0.00 0.00 0.00 0.01 0.05 0.10 0.09 0.09 0.09 0.08 0.25 0.14 0.10 0.21 0.32 0.48 0.61 0.60 0.48 0.46 0.37 0.32 0.24 0.13 0.07 0.04
0.08 0.07 0.09 0.06 0.15 0.29 0.35 0.49 0.27 0.19 0.30 0.33 0.06 0.06 0.02 0.00 0.00 0.00 0.00 0.00 0.01 0.02 0.07 0.11 0.10 0.08 0.15 0.10 0.36 0.22 0.39 0.27 0.26 0.29 0.42 0.63 0.59 0.42 0.25 0.19 0.11 0.04 0.02 0.02
0.07 0.09 0.11 0.11 0.15 0.30 0.27 0.15 0.16 0.12 0.25 0.42 0.08 0.07 0.04 0.02 0.00 0.00 0.00 0.00 0.02 0.04 0.05 0.07 0.06 0.10 0.14 0.16 0.15 0.08 0.11 0.07 0.04 0.07 0.08 0.10 0.08 0.06 0.01 0.00 0.00 0.00 0.00 0.00
0.09 0.20 0.18 0.19 0.32 0.48 0.33 0.08 0.16 0.09 0.23 0.16 0.08 0.07 0.08 0.01 0.02 0.04 0.02 0.01 0.03 0.07 0.09 0.05 0.05 0.11 0.23 0.23 0.04 0.00 0.00 0.00 0.00 0.00 0.00 0.01 0.00 0.00 0.00 0.00 0.00 0.00 0.00 0.00
0.19 0.45 0.68 0.87 0.72 0.33 0.20 0.16 0.12 0.12 0.24 0.14 0.04 0.03 0.19 0.11 0.14 0.13 0.09 0.03 0.05 0.09 0.07 0.03 0.07 0.10 0.13 0.10 0.01 0.00 0.00 0.00 0.00 0.00 0.00 0.00 0.00 0.00 0.00 0.00 0.00 0.00 0.01 0.00
0.52 1.16 1.14 0.85 0.35 0.17 0.31 0.51 0.26 0.25 0.14 0.10 0.05 0.01 0.12 0.20 0.18 0.14 0.09 0.05 0.09 0.17 0.08 0.05 0.08 0.06 0.05 0.02 0.01 0.00 0.00 0.00 0.00 0.00 0.01 0.01 0.01 0.00 0.00 0.00 0.00 0.01 0.01 0.01
1.34 1.23 0.70 0.45 0.34 0.32 0.45 0.27 0.15 0.11 0.06 0.02 0.01 0.00 0.08 0.16 0.23 0.16 0.10 0.19 0.14 0.11 0.15 0.09 0.11 0.07 0.05 0.02 0.00 0.00 0.00 0.00 0.00 0.00 0.01 0.02 0.01 0.01 0.01 0.01 0.01 0.01 0.01 0.02
0.57 0.62 0.77 0.79 0.71 0.65 0.36 0.20 0.05 0.04 0.00 0.00 0.00 0.01 0.05 0.28 0.49 0.39 0.14 0.14 0.27 0.14 0.24 0.14 0.05 0.06 0.02 0.00 0.00 0.00 0.00 0.00 0.00 0.00 0.00 0.00 0.01 0.00 0.00 0.01 0.01 0.02 0.02 0.02
0.66 0.94 1.01 0.56 0.52 0.43 0.12 0.09 0.02 0.00 0.00 0.01 0.01 0.03 0.05 0.09 0.52 0.30 0.05 0.01 0.11 0.17 0.16 0.11 0.04 0.03 0.01 0.00 0.00 0.00 0.00 0.00 0.00 0.00 0.00 0.00 0.01 0.00 0.00 0.01 0.01 0.01 0.01 0.01
0.97 1.02 0.75 0.30 0.14 0.03 0.01 0.01 0.03 0.01 0.00 0.01 0.01 0.03 0.03 0.01 0.17 0.33 0.09 0.04 0.03 0.05 0.07 0.06 0.03 0.02 0.01 0.00 0.00 0.00 0.00 0.00 0.00 0.00 0.00 0.01 0.01 0.01 0.01 0.01 0.01 0.00 0.01 0.01
0.69 0.54 0.30 0.04 0.03 0.02 0.04 0.04 0.02 0.01 0.01 0.01 0.01 0.02 0.05 0.02 0.07 0.06 0.08 0.04 0.03 0.02 0.06 0.02 0.03 0.01 0.00 0.00 0.00 0.00 0.00 0.00 0.00 0.00 0.00 0.00 0.00 0.01 0.01 0.01 0.01 0.01 0.01 0.01
0.29 0.23 0.27 0.11 0.02 0.03 0.03 0.05 0.03 0.03 0.03 0.02 0.05 0.03 0.03 0.01 0.01 0.02 0.02 0.04 0.09 0.08 0.01 0.03 0.02 0.01 0.00 0.00 0.00 0.00 0.00 0.00 0.00 0.00 0.00 0.00 0.00 0.01 0.01 0.01 0.01 0.01 0.00 0.01
0.17 0.12 0.14 0.14 0.05 0.03 0.03 0.04 0.06 0.06 0.04 0.04 0.04 0.02 0.01 0.01 0.01 0.00 0.01 0.02 0.01 0.01 0.02 0.02 0.00 0.00 0.00 0.00 0.00 0.00 0.00 0.00 0.00 0.00 0.00 0.00 0.00 0.00 0.00 0.02 0.02 0.01 0.01 0.00

GFSNW_prec_precacc24_111.txt.gz
Total_Precipitation_Accumulation
0.09 0.06 0.02 0.00 0.02 0.01 0.00 0.00 0.00 0.00 0.01 0.16 0.19 0.06 0.01 0.00 0.00 0.00 0.04 0.22 0.43 0.52 0.56 0.52 1.04 0.57 0.30 0.04 0.17 0.22 0.05 0.22 0.07 0.04 0.03 0.03 0.03 0.03 0.05 0.16 0.31 0.54 0.96 1.35
0.07 0.02 0.01 0.01 0.03 0.00 0.00 0.00 0.00 0.00 0.04 0.25 0.12 0.01 0.00 0.00 0.00 0.00 0.02 0.09 0.42 0.62 0.67 0.79 0.72 0.67 0.20 0.01 0.02 0.06 0.09 0.16 0.17 0.20 0.12 0.31 0.16 0.07 0.06 0.15 0.39 0.83 0.79 1.51
0.04 0.02 0.00 0.00 0.03 0.01 0.00 0.00 0.00 0.00 0.04 0.09 0.08 0.06 0.03 0.05 0.01 0.10 0.08 0.14 0.44 0.52 0.48 0.40 0.54 0.60 0.18 0.06 0.01 0.01 0.05 0.12 0.16 0.25 0.16 0.31 0.32 0.25 0.18 0.34 0.62 0.61 0.49 0.71
0.05 0.02 0.00 0.00 0.03 0.04 0.00 0.00 0.00 0.00 0.01 0.01 0.02 0.14 0.23 0.30 0.27 0.15 0.12 0.19 0.20 0.23 0.39 0.23 0.22 0.33 0.23 0.14 0.05 0.07 0.09 0.36 0.33 0.30 0.40 0.27 0.40 0.73 0.64 0.47 0.39 0.45 0.63 0.45
0.03 0.01 0.00 0.01 0.03 0.05 0.02 0.01 0.01 0.01 0.00 0.00 0.01 0.08 0.20 0.16 0.07 0.09 0.06 0.04 0.04 0.05 0.11 0.16 0.09 0.09 0.23 0.21 0.10 0.23 0.12 0.54 0.70 0.55 0.41 0.27 0.42 0.58 0.34 0.33 0.54 0.49 0.21 0.40
0.02 0.01 0.00 0.01 0.06 0.07 0.06 0.02 0.02 0.02 0.00 0.00 0.00 0.02 0.03 0.03 0.02 0.04 0.01 0.00 0.00 0.00 0.00 0.00 0.00 0.01 0.04 0.02 0.04 0.08 0.09 0.18 0.31 0.29 0.16 0.09 0.36 0.50 0.18 0.18 0.14 0.09 0.07 0.29
0.03 0.02 0.02 0.02 0.08 0.09 0.04 0.03 0.05 0.05 0.01 0.00 0.00 0.00 0.00 0.00 0.00 0.01 0.00 0.00 0.00 0.00 0.00 0.00 0.00 0.00 0.01 0.00 0.00 0.01 0.02 0.01 0.06 0.03 0.07 0.24 0.48 0.20 0.08 0.02 0.02 0.02 0.03 0.07
0.02 0.02 0.02 0.02 0.06 0.13 0.08 0.07 0.08 0.06 0.02 0.00 0.00 0.00 0.00 0.00 0.00 0.00 0.00 0.00 0.00 0.00 0.00 0.00 0.01 0.01 0.03 0.00 0.00 0.00 0.00 0.00 0.07 0.14 0.09 0.19 0.15 0.05 0.03 0.07 0.07 0.04 0.03 0.04
0.03 0.02 0.01 0.01 0.03 0.12 0.13 0.05 0.04 0.05 0.03 0.02 0.00 0.00 0.00 0.00 0.00 0.00 0.00 0.00 0.00 0.00 0.00 0.01 0.06 0.05 0.03 0.04 0.02 0.00 0.00 0.01 0.10 0.14 0.08 0.16 0.09 0.00 0.00 0.01 0.09 0.05 0.03 0.03
0.04 0.02 0.00 0.00 0.02 0.08 0.18 0.12 0.03 0.09 0.05 0.01 0.00 0.00 0.00 0.00 0.00 0.00 0.00 0.00 0.00 0.00 0.02 0.07 0.06 0.09 0.01 0.10 0.03 0.00 0.00 0.00 0.03 0.05 0.03 0.02 0.01 0.00 0.00 0.05 0.18 0.08 0.04 0.04
0.02 0.02 0.01 0.00 0.00 0.03 0.20 0.25 0.06 0.07 0.06 0.01 0.00 0.00 0.00 0.00 0.01 0.01 0.00 0.02 0.01 0.00 0.03 0.03 0.02 0.03 0.01 0.14 0.08 0.02 0.02 0.06 0.03 0.02 0.03 0.05 0.01 0.00 0.05 0.12 0.10 0.06 0.07 0.05
0.02 0.02 0.01 0.00 0.00 0.01 0.13 0.25 0.13 0.13 0.14 0.02 0.00 0.00 0.00 0.00 0.00 0.01 0.00 0.01 0.03 0.03 0.07 0.05 0.03 0.03 0.02 0.04 0.26 0.03 0.06 0.05 0.05 0.07 0.13 0.17 0.06 0.06 0.10 0.06 0.06 0.11 0.10 0.08
0.04 0.02 0.02 0.01 0.01 0.02 0.09 0.18 0.17 0.30 0.20 0.03 0.00 0.02 0.01 0.00 0.00 0.00 0.01 0.06 0.03 0.04 0.02 0.04 0.07 0.08 0.06 0.09 0.15 0.07 0.05 0.02 0.12 0.43 0.45 0.19 0.10 0.07 0.08 0.10 0.21 0.19 0.08 0.11
0.05 0.04 0.02 0.02 0.02 0.04 0.11 0.17 0.09 0.16 0.19 0.05 0.05 0.02 0.01 0.00 0.00 0.00 0.00 0.02 0.00 0.01 0.03 0.03 0.05 0.04 0.07 0.08 0.12 0.06 0.03 0.03 0.13 0.38 0.30 0.23 0.17 0.21 0.16 0.12 0.08 0.06 0.02 0.01
0.06 0.04 0.04 0.03 0.04 0.07 0.19 0.24 0.13 0.08 0.18 0.14 0.03 0.04 0.01 0.00 0.00 0.00 0.00 0.00 0.00 0.01 0.04 0.10 0.09 0.09 0.08 0.09 0.17 0.08 0.05 0.11 0.14 0.21 0.21 0.32 0.33 0.38 0.31 0.22 0.17 0.10 0.06 0.03
0.08 0.07 0.08 0.04 0.08 0.20 0.29 0.39 0.22 0.16 0.26 0.33 0.06 0.06 0.02 0.00 0.00 0.00 0.00 0.00 0.01 0.02 0.05 0.11 0.10 0.07 0.14 0.08 0.15 0.12 0.25 0.16 0.18 0.21 0.21 0.29 0.34 0.29 0.20 0.16 0.09 0.02 0.02 0.02
0.07 0.10 0.10 0.07 0.10 0.25 0.26 0.15 0.16 0.11 0.23 0.41 0.08 0.07 0.04 0.00 0.00 0.00 0.00 0.00 0.02 0.02 0.04 0.07 0.06 0.10 0.13 0.14 0.10 0.04 0.06 0.05 0.03 0.06 0.07 0.09 0.06 0.05 0.00 0.00 0.00 0.00 0.00 0.00
0.10 0.19 0.15 0.14 0.26 0.38 0.29 0.08 0.16 0.09 0.22 0.15 0.08 0.07 0.08 0.01 0.02 0.03 0.02 0.01 0.01 0.04 0.09 0.05 0.04 0.10 0.19 0.21 0.03 0.00 0.00 0.00 0.00 0.00 0.00 0.01 0.00 0.00 0.00 0.00 0.00 0.00 0.00 0.00
0.19 0.39 0.62 0.67 0.47 0.25 0.18 0.17 0.13 0.11 0.24 0.14 0.04 0.03 0.16 0.08 0.12 0.10 0.08 0.03 0.04 0.08 0.07 0.03 0.06 0.09 0.13 0.10 0.00 0.00 0.00 0.00 0.00 0.00 0.00 0.00 0.00 0.00 0.00 0.00 0.00 0.00 0.00 0.00
0.44 0.96 0.99 0.63 0.26 0.16 0.27 0.41 0.19 0.18 0.11 0.08 0.04 0.01 0.09 0.11 0.15 0.11 0.08 0.05 0.08 0.16 0.07 0.03 0.04 0.05 0.06 0.03 0.00 0.00 0.00 0.00 0.00 0.00 0.01 0.01 0.00 0.00 0.00 0.00 0.00 0.00 0.01 0.01
0.89 0.93 0.63 0.38 0.31 0.26 0.35 0.19 0.11 0.07 0.05 0.02 0.01 0.00 0.08 0.10 0.17 0.15 0.10 0.15 0.13 0.10 0.16 0.06 0.08 0.06 0.04 0.02 0.00 0.00 0.00 0.00 0.00 0.00 0.00 0.01 0.01 0.00 0.00 0.00 0.01 0.01 0.01 0.01
0.36 0.55 0.69 0.69 0.64 0.52 0.31 0.14 0.04 0.03 0.00 0.00 0.00 0.00 0.05 0.18 0.30 0.36 0.13 0.11 0.22 0.13 0.18 0.09 0.05 0.05 0.02 0.00 0.00 0.00 0.00 0.00 0.00 0.00 0.00 0.00 0.00 0.00 0.00 0.00 0.01 0.01 0.01 0.01
0.65 0.88 0.94 0.49 0.40 0.38 0.11 0.07 0.01 0.00 0.00 0.01 0.01 0.03 0.05 0.04 0.28 0.27 0.05 0.01 0.10 0.16 0.13 0.09 0.04 0.02 0.01 0.00 0.00 0.00 0.00 0.00 0.00 0.00 0.00 0.00 0.01 0.00 0.00 0.00 0.01 0.00 0.01 0.01
0.92 0.93 0.70 0.25 0.13 0.03 0.00 0.01 0.03 0.01 0.00 0.00 0.01 0.03 0.03 0.01 0.15 0.30 0.07 0.04 0.03 0.04 0.06 0.06 0.02 0.01 0.01 0.00 0.00 0.00 0.00 0.00 0.00 0.00 0.00 0.01 0.01 0.00 0.01 0.00 0.00 0.00 0.00 0.00
0.68 0.55 0.30 0.04 0.03 0.02 0.03 0.04 0.02 0.01 0.00 0.01 0.01 0.02 0.04 0.01 0.07 0.06 0.08 0.05 0.03 0.02 0.06 0.02 0.03 0.01 0.00 0.00 0.00 0.00 0.00 0.00 0.00 0.00 0.00 0.00 0.00 0.00 0.01 0.01 0.00 0.00 0.00 0.00
0.29 0.23 0.28 0.11 0.02 0.02 0.02 0.04 0.02 0.01 0.01 0.02 0.05 0.03 0.03 0.01 0.01 0.02 0.02 0.04 0.09 0.08 0.01 0.02 0.02 0.01 0.00 0.00 0.00 0.00 0.00 0.00 0.00 0.00 0.00 0.00 0.00 0.01 0.01 0.01 0.00 0.00 0.00 0.00
0.17 0.11 0.14 0.15 0.06 0.02 0.02 0.02 0.04 0.03 0.04 0.04 0.04 0.02 0.01 0.01 0.01 0.00 0.01 0.02 0.01 0.01 0.02 0.02 0.00 0.00 0.00 0.00 0.00 0.00 0.00 0.00 0.00 0.00 0.00 0.00 0.00 0.00 0.00 0.02 0.01 0.01 0.01 0.00

GFSNW_prec_precacc24_114.txt.gz
Total_Precipitation_Accumulation
0.14 0.14 0.11 0.09 0.06 0.02 0.00 0.00 0.00 0.00 0.00 0.02 0.06 0.05 0.01 0.00 0.00 0.00 0.01 0.07 0.28 0.50 0.56 0.51 1.01 0.54 0.30 0.03 0.17 0.22 0.06 0.27 0.08 0.04 0.03 0.03 0.03 0.03 0.06 0.20 0.31 0.53 1.01 1.44
0.15 0.10 0.10 0.07 0.04 0.02 0.00 0.00 0.00 0.00 0.00 0.04 0.04 0.01 0.00 0.00 0.00 0.00 0.01 0.04 0.26 0.58 0.66 0.79 0.72 0.65 0.19 0.01 0.02 0.07 0.12 0.20 0.21 0.20 0.11 0.32 0.16 0.07 0.06 0.14 0.36 0.83 0.87 1.59
0.17 0.17 0.10 0.08 0.03 0.01 0.00 0.00 0.00 0.00 0.00 0.00 0.00 0.03 0.01 0.02 0.00 0.09 0.07 0.11 0.39 0.43 0.47 0.39 0.54 0.60 0.17 0.06 0.01 0.01 0.08 0.17 0.29 0.36 0.23 0.38 0.34 0.26 0.19 0.42 0.73 0.65 0.51 0.76
0.19 0.13 0.16 0.05 0.02 0.02 0.00 0.00 0.00 0.00 0.00 0.00 0.00 0.02 0.07 0.16 0.20 0.14 0.10 0.12 0.13 0.19 0.35 0.23 0.21 0.33 0.23 0.14 0.05 0.07 0.11 0.48 0.41 0.35 0.47 0.30 0.42 0.84 0.78 0.52 0.46 0.44 0.72 0.49
0.24 0.14 0.05 0.01 0.02 0.03 0.00 0.01 0.00 0.01 0.00 0.00 0.00 0.00 0.03 0.05 0.03 0.08 0.05 0.04 0.04 0.04 0.10 0.16 0.09 0.09 0.23 0.21 0.10 0.23 0.16 0.61 0.78 0.62 0.49 0.29 0.45 0.73 0.49 0.37 0.62 0.58 0.28 0.45
0.17 0.08 0.02 0.01 0.02 0.05 0.02 0.01 0.01 0.02 0.00 0.00 0.00 0.00 0.00 0.00 0.00 0.02 0.01 0.00 0.00 0.00 0.00 0.00 0.00 0.01 0.04 0.02 0.04 0.08 0.13 0.24 0.38 0.34 0.18 0.10 0.38 0.70 0.35 0.23 0.18 0.13 0.09 0.29
0.08 0.03 0.02 0.01 0.04 0.06 0.03 0.01 0.02 0.03 0.01 0.00 0.00 0.00 0.00 0.00 0.00 0.00 0.00 0.00 0.00 0.00 0.00 0.00 0.00 0.00 0.01 0.00 0.00 0.02 0.06 0.07 0.14 0.12 0.13 0.29 0.53 0.24 0.10 0.03 0.03 0.04 0.04 0.08
0.04 0.02 0.01 0.01 0.04 0.07 0.07 0.04 0.04 0.05 0.02 0.00 0.00 0.00 0.00 0.00 0.00 0.00 0.00 0.00 0.00 0.00 0.00 0.00 0.01 0.01 0.03 0.00 0.00 0.02 0.01 0.06 0.14 0.24 0.12 0.24 0.18 0.07 0.04 0.08 0.08 0.06 0.05 0.06
0.03 0.01 0.00 0.00 0.01 0.08 0.11 0.05 0.03 0.04 0.03 0.02 0.00 0.00 0.00 0.00 0.00 0.00 0.00 0.00 0.00 0.00 0.00 0.01 0.06 0.05 0.03 0.04 0.02 0.00 0.00 0.03 0.15 0.21 0.08 0.18 0.11 0.01 0.00 0.01 0.09 0.06 0.04 0.03
0.04 0.02 0.00 0.00 0.00 0.05 0.15 0.10 0.03 0.08 0.03 0.01 0.00 0.00 0.00 0.00 0.00 0.00 0.00 0.00 0.00 0.00 0.02 0.07 0.06 0.09 0.01 0.11 0.03 0.00 0.00 0.00 0.09 0.12 0.03 0.04 0.01 0.02 0.00 0.05 0.19 0.09 0.04 0.02
0.02 0.02 0.01 0.00 0.00 0.02 0.16 0.21 0.05 0.06 0.05 0.01 0.00 0.00 0.00 0.00 0.01 0.01 0.00 0.02 0.01 0.00 0.02 0.02 0.02 0.03 0.01 0.16 0.09 0.02 0.02 0.07 0.05 0.06 0.03 0.05 0.01 0.01 0.05 0.14 0.11 0.06 0.06 0.03
0.02 0.01 0.00 0.00 0.00 0.00 0.09 0.20 0.11 0.11 0.12 0.02 0.00 0.00 0.00 0.00 0.00 0.01 0.00 0.01 0.03 0.02 0.03 0.03 0.02 0.02 0.02 0.06 0.31 0.04 0.06 0.05 0.04 0.07 0.14 0.19 0.07 0.07 0.10 0.06 0.07 0.12 0.10 0.05
0.03 0.01 0.01 0.00 0.01 0.01 0.06 0.13 0.11 0.17 0.14 0.02 0.00 0.02 0.01 0.00 0.00 0.00 0.01 0.06 0.03 0.04 0.01 0.02 0.02 0.06 0.06 0.11 0.17 0.08 0.06 0.02 0.06 0.14 0.23 0.18 0.10 0.07 0.07 0.08 0.20 0.19 0.08 0.09
0.04 0.03 0.02 0.02 0.02 0.03 0.07 0.12 0.06 0.06 0.14 0.05 0.05 0.02 0.01 0.00 0.00 0.00 0.00 0.02 0.00 0.01 0.03 0.02 0.02 0.03 0.07 0.09 0.13 0.05 0.02 0.02 0.05 0.16 0.16 0.16 0.08 0.13 0.13 0.10 0.07 0.06 0.02 0.01
0.03 0.02 0.03 0.02 0.03 0.03 0.10 0.15 0.11 0.05 0.17 0.13 0.03 0.04 0.01 0.00 0.00 0.00 0.00 0.00 0.00 0.01 0.03 0.07 0.08 0.09 0.08 0.09 0.16 0.08 0.02 0.07 0.12 0.15 0.09 0.13 0.14 0.17 0.17 0.15 0.11 0.05 0.02 0.02
0.04 0.04 0.07 0.03 0.03 0.10 0.19 0.20 0.09 0.06 0.18 0.29 0.06 0.06 0.02 0.00 0.00 0.00 0.00 0.00 0.01 0.01 0.02 0.09 0.10 0.07 0.13 0.08 0.13 0.06 0.11 0.08 0.13 0.15 0.10 0.10 0.13 0.12 0.10 0.08 0.06 0.01 0.00 0.00
0.05 0.09 0.10 0.06 0.05 0.17 0.21 0.12 0.16 0.08 0.20 0.37 0.08 0.07 0.04 0.00 0.00 0.00 0.00 0.00 0.02 0.01 0.02 0.06 0.06 0.10 0.12 0.13 0.09 0.03 0.03 0.02 0.03 0.05 0.05 0.07 0.04 0.03 0.00 0.00 0.00 0.00 0.00 0.00
0.08 0.16 0.13 0.11 0.20 0.31 0.24 0.08 0.16 0.08 0.21 0.15 0.08 0.07 0.08 0.01 0.02 0.03 0.01 0.01 0.01 0.02 0.05 0.03 0.04 0.10 0.19 0.18 0.03 0.00 0.00 0.00 0.00 0.00 0.00 0.01 0.00 0.00 0.00 0.00 0.00 0.00 0.00 0.00
0.16 0.34 0.52 0.51 0.36 0.23 0.15 0.15 0.12 0.11 0.24 0.14 0.04 0.03 0.16 0.07 0.10 0.09 0.06 0.03 0.04 0.08 0.06 0.02 0.06 0.09 0.13 0.10 0.01 0.00 0.00 0.00 0.00 0.00 0.00 0.00 0.00 0.00 0.00 0.00 0.00 0.00 0.00 0.00
0.37 0.76 0.78 0.42 0.22 0.14 0.20 0.31 0.16 0.15 0.10 0.07 0.03 0.01 0.09 0.10 0.14 0.08 0.07 0.05 0.08 0.15 0.08 0.03 0.04 0.05 0.05 0.03 0.00 0.00 0.00 0.00 0.00 0.00 0.01 0.00 0.00 0.00 0.00 0.00 0.00 0.00 0.01 0.01
0.63 0.70 0.54 0.32 0.26 0.21 0.29 0.16 0.09 0.06 0.04 0.02 0.00 0.00 0.08 0.09 0.14 0.15 0.09 0.15 0.13 0.10 0.16 0.04 0.07 0.06 0.04 0.01 0.00 0.00 0.00 0.00 0.00 0.00 0.00 0.00 0.00 0.00 0.00 0.00 0.00 0.00 0.01 0.01
0.22 0.46 0.62 0.59 0.56 0.39 0.24 0.10 0.04 0.03 0.00 0.00 0.00 0.00 0.05 0.17 0.18 0.35 0.13 0.06 0.14 0.12 0.16 0.06 0.05 0.04 0.01 0.00 0.00 0.00 0.00 0.00 0.00 0.00 0.00 0.00 0.00 0.00 0.00 0.00 0.01 0.01 0.01 0.01
0.52 0.75 0.82 0.45 0.33 0.31 0.10 0.05 0.01 0.00 0.00 0.01 0.00 0.02 0.04 0.03 0.09 0.22 0.05 0.01 0.08 0.15 0.12 0.07 0.03 0.02 0.01 0.00 0.00 0.00 0.00 0.00 0.00 0.00 0.00 0.00 0.00 0.00 0.00 0.00 0.00 0.00 0.00 0.00
0.66 0.74 0.57 0.20 0.11 0.03 0.00 0.01 0.03 0.01 0.00 0.00 0.01 0.02 0.03 0.01 0.07 0.20 0.06 0.04 0.03 0.04 0.06 0.06 0.02 0.01 0.00 0.00 0.00 0.00 0.00 0.00 0.00 0.00 0.00 0.00 0.00 0.00 0.00 0.00 0.00 0.00 0.00 0.00
0.59 0.53 0.30 0.04 0.03 0.01 0.03 0.04 0.02 0.01 0.00 0.01 0.01 0.02 0.04 0.01 0.07 0.06 0.08 0.05 0.03 0.02 0.06 0.02 0.02 0.01 0.00 0.00 0.00 0.00 0.00 0.00 0.00 0.00 0.00 0.00 0.00 0.00 0.00 0.00 0.00 0.00 0.00 0.00
0.29 0.23 0.28 0.12 0.03 0.02 0.02 0.04 0.01 0.00 0.01 0.02 0.05 0.02 0.03 0.01 0.01 0.02 0.02 0.05 0.09 0.08 0.01 0.02 0.01 0.00 0.00 0.00 0.00 0.00 0.00 0.00 0.00 0.00 0.00 0.00 0.00 0.00 0.01 0.01 0.00 0.00 0.00 0.00
0.17 0.10 0.15 0.16 0.06 0.02 0.02 0.03 0.02 0.01 0.03 0.04 0.04 0.02 0.01 0.01 0.01 0.00 0.01 0.02 0.01 0.01 0.02 0.02 0.00 0.00 0.00 0.00 0.00 0.00 0.00 0.00 0.00 0.00 0.00 0.00 0.00 0.00 0.00 0.02 0.01 0.00 0.00 0.00

GFSNW_prec_precacc24_117.txt.gz
Total_Precipitation_Accumulation
0.19 0.20 0.19 0.16 0.12 0.07 0.14 0.22 0.10 0.02 0.01 0.02 0.01 0.01 0.01 0.00 0.00 0.00 0.00 0.02 0.07 0.28 0.47 0.48 0.97 0.51 0.28 0.03 0.17 0.22 0.06 0.29 0.09 0.04 0.03 0.03 0.03 0.03 0.08 0.24 0.33 0.57 1.06 1.48
0.23 0.17 0.18 0.13 0.12 0.08 0.08 0.14 0.09 0.01 0.01 0.01 0.00 0.00 0.00 0.00 0.00 0.00 0.01 0.02 0.15 0.34 0.54 0.74 0.68 0.61 0.19 0.01 0.01 0.06 0.13 0.22 0.24 0.18 0.10 0.32 0.16 0.07 0.07 0.17 0.41 0.90 0.89 1.65
0.27 0.26 0.16 0.14 0.10 0.10 0.07 0.05 0.05 0.02 0.01 0.00 0.00 0.00 0.00 0.00 0.00 0.08 0.05 0.09 0.22 0.24 0.33 0.35 0.51 0.51 0.15 0.05 0.00 0.01 0.08 0.20 0.35 0.38 0.28 0.43 0.38 0.33 0.24 0.46 0.81 0.71 0.54 0.78
0.30 0.22 0.24 0.20 0.15 0.09 0.09 0.07 0.01 0.00 0.01 0.00 0.00 0.00 0.01 0.03 0.02 0.09 0.08 0.07 0.07 0.11 0.20 0.16 0.19 0.31 0.21 0.13 0.04 0.07 0.12 0.51 0.47 0.41 0.53 0.35 0.47 0.94 0.81 0.53 0.47 0.45 0.75 0.51
0.31 0.20 0.16 0.20 0.19 0.13 0.07 0.04 0.00 0.00 0.00 0.01 0.01 0.00 0.00 0.00 0.00 0.02 0.02 0.01 0.01 0.02 0.04 0.10 0.08 0.08 0.23 0.20 0.10 0.23 0.17 0.63 0.81 0.65 0.55 0.33 0.52 0.87 0.53 0.39 0.65 0.61 0.32 0.47
0.28 0.23 0.13 0.10 0.11 0.10 0.06 0.02 0.01 0.01 0.01 0.00 0.01 0.01 0.00 0.00 0.00 0.00 0.00 0.00 0.00 0.00 0.00 0.00 0.00 0.01 0.04 0.02 0.04 0.08 0.13 0.26 0.41 0.35 0.21 0.12 0.42 0.79 0.46 0.26 0.20 0.16 0.10 0.31
0.28 0.22 0.16 0.08 0.06 0.06 0.04 0.01 0.01 0.03 0.01 0.00 0.00 0.00 0.00 0.00 0.00 0.00 0.00 0.00 0.00 0.00 0.00 0.00 0.00 0.00 0.01 0.00 0.00 0.02 0.06 0.09 0.18 0.17 0.19 0.36 0.57 0.27 0.14 0.04 0.05 0.06 0.05 0.09
0.30 0.21 0.14 0.08 0.04 0.04 0.07 0.04 0.03 0.04 0.01 0.00 0.00 0.00 0.00 0.00 0.00 0.00 0.00 0.00 0.00 0.00 0.00 0.00 0.01 0.01 0.03 0.00 0.00 0.02 0.01 0.08 0.19 0.33 0.16 0.29 0.21 0.08 0.05 0.09 0.10 0.07 0.07 0.07
0.22 0.15 0.08 0.06 0.02 0.04 0.08 0.04 0.03 0.03 0.03 0.02 0.00 0.00 0.00 0.00 0.00 0.00 0.00 0.00 0.00 0.00 0.00 0.01 0.06 0.05 0.03 0.04 0.02 0.00 0.00 0.03 0.20 0.29 0.12 0.20 0.13 0.04 0.01 0.01 0.11 0.07 0.04 0.04
0.11 0.08 0.05 0.02 0.00 0.02 0.10 0.09 0.02 0.05 0.03 0.01 0.00 0.00 0.00 0.00 0.00 0.00 0.00 0.00 0.00 0.00 0.02 0.07 0.06 0.09 0.01 0.11 0.03 0.00 0.00 0.01 0.13 0.21 0.06 0.05 0.02 0.04 0.01 0.06 0.20 0.09 0.04 0.02
0.04 0.04 0.02 0.00 0.00 0.00 0.08 0.16 0.03 0.03 0.04 0.01 0.00 0.00 0.00 0.00 0.01 0.01 0.00 0.02 0.01 0.00 0.02 0.02 0.02 0.03 0.01 0.17 0.10 0.03 0.02 0.08 0.08 0.12 0.09 0.08 0.03 0.03 0.06 0.15 0.12 0.06 0.06 0.03
0.02 0.01 0.00 0.00 0.00 0.00 0.04 0.16 0.10 0.08 0.07 0.02 0.00 0.00 0.00 0.00 0.00 0.01 0.00 0.01 0.03 0.02 0.03 0.02 0.01 0.02 0.02 0.07 0.37 0.04 0.05 0.04 0.07 0.10 0.14 0.16 0.09 0.09 0.11 0.06 0.07 0.11 0.08 0.04
0.03 0.01 0.01 0.00 0.00 0.01 0.03 0.11 0.10 0.11 0.06 0.01 0.00 0.02 0.01 0.00 0.00 0.00 0.01 0.06 0.03 0.04 0.01 0.02 0.02 0.04 0.05 0.12 0.19 0.10 0.08 0.02 0.06 0.13 0.13 0.07 0.08 0.06 0.06 0.04 0.08 0.14 0.05 0.03
0.04 0.02 0.01 0.01 0.01 0.02 0.05 0.09 0.05 0.04 0.06 0.03 0.05 0.02 0.01 0.00 0.00 0.00 0.00 0.02 0.00 0.01 0.03 0.02 0.02 0.02 0.07 0.09 0.13 0.05 0.03 0.03 0.05 0.12 0.11 0.08 0.05 0.06 0.06 0.03 0.02 0.02 0.01 0.01
0.03 0.02 0.02 0.01 0.01 0.01 0.06 0.11 0.10 0.04 0.11 0.11 0.03 0.04 0.01 0.00 0.00 0.00 0.00 0.00 0.00 0.01 0.03 0.06 0.07 0.09 0.07 0.08 0.14 0.08 0.01 0.04 0.10 0.12 0.05 0.08 0.07 0.06 0.04 0.03 0.03 0.01 0.00 0.00
0.03 0.01 0.03 0.02 0.02 0.06 0.13 0.11 0.05 0.03 0.09 0.18 0.05 0.06 0.02 0.00 0.00 0.00 0.00 0.00 0.01 0.01 0.01 0.05 0.08 0.07 0.12 0.07 0.12 0.06 0.04 0.03 0.08 0.10 0.04 0.03 0.05 0.04 0.02 0.02 0.02 0.00 0.00 0.00
0.03 0.03 0.06 0.05 0.03 0.09 0.13 0.07 0.16 0.06 0.12 0.19 0.07 0.07 0.04 0.00 0.00 0.00 0.00 0.00 0.02 0.01 0.02 0.05 0.06 0.10 0.12 0.12 0.09 0.03 0.01 0.02 0.02 0.04 0.04 0.05 0.02 0.01 0.00 0.00 0.00 0.00 0.00 0.00
0.04 0.06 0.08 0.08 0.08 0.12 0.11 0.05 0.16 0.07 0.17 0.13 0.08 0.08 0.08 0.01 0.02 0.03 0.01 0.01 0.01 0.02 0.05 0.03 0.04 0.10 0.18 0.18 0.03 0.00 0.00 0.00 0.00 0.00 0.00 0.01 0.00 0.00 0.00 0.00 0.00 0.00 0.00 0.00
0.07 0.16 0.31 0.35 0.27 0.18 0.11 0.12 0.11 0.11 0.23 0.14 0.04 0.03 0.16 0.06 0.07 0.07 0.04 0.03 0.03 0.08 0.05 0.02 0.06 0.09 0.12 0.11 0.01 0.00 0.00 0.00 0.00 0.00 0.00 0.00 0.00 0.00 0.00 0.00 0.00 0.00 0.00 0.00
0.20 0.48 0.48 0.35 0.17 0.11 0.15 0.22 0.14 0.13 0.10 0.06 0.02 0.01 0.09 0.09 0.11 0.07 0.05 0.05 0.08 0.15 0.08 0.03 0.03 0.04 0.05 0.02 0.00 0.00 0.00 0.00 0.00 0.00 0.01 0.00 0.00 0.00 0.00 0.00 0.00 0.00 0.00 0.00
0.36 0.46 0.33 0.25 0.18 0.19 0.23 0.14 0.07 0.05 0.03 0.01 0.00 0.00 0.08 0.09 0.12 0.14 0.09 0.14 0.13 0.10 0.17 0.04 0.06 0.06 0.03 0.01 0.00 0.00 0.00 0.00 0.00 0.00 0.00 0.00 0.00 0.00 0.00 0.00 0.00 0.00 0.00 0.01
0.13 0.34 0.56 0.52 0.39 0.31 0.21 0.09 0.03 0.03 0.00 0.00 0.00 0.00 0.05 0.17 0.13 0.32 0.13 0.05 0.08 0.11 0.14 0.04 0.05 0.04 0.01 0.00 0.00 0.00 0.00 0.00 0.00 0.00 0.00 0.00 0.00 0.00 0.00 0.00 0.00 0.01 0.00 0.01
0.43 0.62 0.75 0.41 0.28 0.25 0.09 0.04 0.01 0.00 0.00 0.01 0.00 0.01 0.04 0.03 0.05 0.16 0.05 0.01 0.06 0.12 0.11 0.07 0.03 0.02 0.00 0.00 0.00 0.00 0.00 0.00 0.00 0.00 0.00 0.00 0.00 0.00 0.00 0.00 0.00 0.00 0.00 0.00
0.51 0.54 0.43 0.18 0.10 0.03 0.00 0.01 0.03 0.01 0.00 0.00 0.01 0.02 0.02 0.01 0.02 0.10 0.06 0.04 0.02 0.04 0.06 0.06 0.01 0.01 0.00 0.00 0.00 0.00 0.00 0.00 0.00 0.00 0.00 0.00 0.00 0.00 0.00 0.00 0.00 0.00 0.00 0.00
0.40 0.39 0.24 0.04 0.04 0.02 0.03 0.04 0.02 0.01 0.00 0.01 0.01 0.01 0.03 0.01 0.05 0.05 0.07 0.04 0.03 0.02 0.06 0.02 0.02 0.01 0.00 0.00 0.00 0.00 0.00 0.00 0.00 0.00 0.00 0.00 0.00 0.00 0.00 0.00 0.00 0.00 0.00 0.00
0.24 0.21 0.28 0.12 0.03 0.02 0.01 0.04 0.01 0.00 0.01 0.02 0.05 0.02 0.02 0.01 0.01 0.02 0.02 0.05 0.09 0.08 0.01 0.02 0.01 0.00 0.00 0.00 0.00 0.00 0.00 0.00 0.00 0.00 0.00 0.00 0.00 0.00 0.01 0.01 0.00 0.00 0.00 0.00
0.15 0.11 0.15 0.16 0.06 0.02 0.02 0.03 0.01 0.00 0.02 0.04 0.04 0.02 0.01 0.01 0.01 0.00 0.01 0.02 0.01 0.01 0.02 0.02 0.00 0.00 0.00 0.00 0.00 0.00 0.00 0.00 0.00 0.00 0.00 0.00 0.00 0.00 0.00 0.02 0.01 0.00 0.00 0.00

GFSNW_prec_precacc24_123.txt.gz
Total_Precipitation_Accumulation
0.19 0.21 0.21 0.22 0.24 0.22 0.26 0.27 0.29 0.23 0.29 0.37 0.27 0.08 0.03 0.01 0.00 0.00 0.00 0.00 0.01 0.04 0.08 0.08 0.29 0.26 0.20 0.02 0.17 0.21 0.04 0.29 0.08 0.03 0.02 0.02 0.03 0.04 0.12 0.38 0.41 0.72 1.17 1.51
0.23 0.18 0.20 0.20 0.26 0.15 0.13 0.26 0.44 0.32 0.28 0.23 0.13 0.03 0.01 0.01 0.01 0.01 0.01 0.01 0.01 0.03 0.09 0.17 0.13 0.20 0.12 0.00 0.00 0.03 0.10 0.18 0.21 0.08 0.07 0.31 0.15 0.07 0.09 0.24 0.51 1.01 1.02 1.67
0.28 0.28 0.20 0.21 0.21 0.15 0.07 0.15 0.40 0.60 0.43 0.08 0.02 0.02 0.02 0.01 0.01 0.01 0.01 0.01 0.01 0.02 0.03 0.02 0.04 0.18 0.10 0.00 0.00 0.00 0.07 0.17 0.31 0.34 0.27 0.44 0.37 0.32 0.24 0.57 0.95 0.79 0.59 0.80
0.31 0.26 0.30 0.29 0.24 0.14 0.10 0.12 0.10 0.16 0.20 0.09 0.02 0.01 0.01 0.01 0.01 0.01 0.01 0.01 0.02 0.02 0.04 0.01 0.02 0.05 0.03 0.00 0.00 0.00 0.09 0.49 0.41 0.41 0.57 0.39 0.48 0.94 0.81 0.55 0.51 0.48 0.77 0.52
0.40 0.27 0.24 0.29 0.27 0.17 0.09 0.08 0.04 0.01 0.00 0.01 0.02 0.01 0.01 0.01 0.01 0.01 0.01 0.02 0.01 0.01 0.02 0.03 0.03 0.02 0.06 0.03 0.03 0.10 0.12 0.63 0.82 0.65 0.59 0.36 0.54 0.90 0.55 0.40 0.67 0.62 0.32 0.48
0.37 0.40 0.27 0.22 0.21 0.16 0.11 0.03 0.00 0.01 0.02 0.02 0.03 0.03 0.00 0.00 0.01 0.01 0.01 0.01 0.01 0.00 0.00 0.00 0.00 0.01 0.04 0.01 0.03 0.07 0.13 0.27 0.42 0.37 0.25 0.16 0.48 0.82 0.49 0.29 0.22 0.18 0.12 0.32
0.36 0.34 0.38 0.31 0.20 0.07 0.04 0.01 0.01 0.04 0.06 0.01 0.01 0.01 0.01 0.01 0.01 0.01 0.00 0.00 0.00 0.00 0.00 0.00 0.00 0.00 0.01 0.00 0.00 0.02 0.06 0.09 0.18 0.19 0.26 0.48 0.62 0.28 0.15 0.04 0.05 0.07 0.05 0.09
0.42 0.31 0.35 0.57 0.30 0.09 0.03 0.02 0.01 0.04 0.04 0.01 0.02 0.03 0.02 0.01 0.01 0.00 0.00 0.00 0.00 0.00 0.00 0.00 0.01 0.01 0.03 0.01 0.00 0.02 0.01 0.08 0.20 0.36 0.25 0.37 0.26 0.09 0.05 0.09 0.10 0.08 0.08 0.08
0.42 0.42 0.37 0.52 0.47 0.13 0.03 0.03 0.01 0.02 0.04 0.06 0.01 0.01 0.01 0.01 0.00 0.00 0.00 0.00 0.00 0.00 0.00 0.01 0.05 0.04 0.03 0.05 0.05 0.01 0.01 0.04 0.22 0.31 0.18 0.28 0.15 0.06 0.03 0.03 0.12 0.08 0.05 0.05
0.45 0.44 0.38 0.30 0.31 0.12 0.05 0.06 0.00 0.02 0.04 0.03 0.01 0.03 0.02 0.01 0.01 0.00 0.00 0.00 0.00 0.00 0.01 0.04 0.04 0.07 0.00 0.11 0.05 0.04 0.02 0.02 0.15 0.23 0.12 0.09 0.04 0.08 0.07 0.12 0.21 0.09 0.04 0.02
0.34 0.34 0.25 0.17 0.13 0.05 0.03 0.07 0.01 0.02 0.04 0.05 0.03 0.01 0.01 0.01 0.01 0.01 0.00 0.01 0.01 0.00 0.01 0.01 0.00 0.00 0.00 0.15 0.09 0.02 0.01 0.08 0.08 0.14 0.14 0.13 0.07 0.16 0.17 0.15 0.11 0.06 0.05 0.02
0.28 0.18 0.10 0.06 0.03 0.01 0.00 0.05 0.02 0.02 0.04 0.04 0.01 0.00 0.00 0.00 0.00 0.00 0.00 0.01 0.03 0.01 0.01 0.01 0.00 0.00 0.01 0.07 0.33 0.03 0.03 0.03 0.06 0.11 0.14 0.16 0.15 0.18 0.14 0.05 0.06 0.07 0.03 0.01
0.16 0.10 0.06 0.03 0.01 0.01 0.00 0.05 0.02 0.01 0.05 0.02 0.01 0.01 0.01 0.00 0.00 0.00 0.00 0.06 0.02 0.02 0.01 0.01 0.01 0.01 0.03 0.10 0.20 0.10 0.07 0.01 0.03 0.12 0.16 0.11 0.15 0.16 0.11 0.06 0.03 0.01 0.01 0.00
0.10 0.05 0.03 0.01 0.00 0.00 0.00 0.02 0.02 0.01 0.02 0.01 0.03 0.02 0.01 0.00 0.00 0.00 0.00 0.01 0.00 0.00 0.01 0.02 0.01 0.00 0.04 0.06 0.11 0.04 0.02 0.03 0.04 0.10 0.15 0.12 0.13 0.13 0.08 0.03 0.01 0.00 0.00 0.00
0.04 0.01 0.01 0.00 0.00 0.00 0.00 0.03 0.04 0.03 0.06 0.05 0.01 0.03 0.00 0.00 0.00 0.00 0.00 0.00 0.00 0.00 0.01 0.04 0.02 0.03 0.03 0.03 0.10 0.06 0.01 0.02 0.07 0.10 0.04 0.08 0.10 0.10 0.05 0.02 0.00 0.00 0.00 0.00
0.02 0.01 0.03 0.01 0.00 0.00 0.02 0.03 0.02 0.01 0.04 0.05 0.02 0.04 0.02 0.00 0.00 0.00 0.00 0.00 0.00 0.01 0.00 0.01 0.01 0.03 0.05 0.04 0.10 0.06 0.01 0.01 0.01 0.03 0.02 0.03 0.05 0.04 0.02 0.01 0.00 0.00 0.00 0.00
0.02 0.03 0.03 0.00 0.00 0.02 0.04 0.03 0.12 0.03 0.06 0.04 0.02 0.08 0.05 0.00 0.00 0.00 0.00 0.00 0.01 0.00 0.01 0.01 0.02 0.04 0.07 0.09 0.08 0.03 0.01 0.02 0.01 0.00 0.02 0.07 0.04 0.02 0.00 0.00 0.00 0.00 0.00 0.00
0.03 0.04 0.01 0.00 0.01 0.01 0.01 0.02 0.13 0.04 0.04 0.02 0.02 0.10 0.09 0.01 0.01 0.02 0.01 0.01 0.00 0.00 0.01 0.01 0.01 0.04 0.13 0.15 0.03 0.00 0.00 0.00 0.00 0.00 0.00 0.01 0.00 0.00 0.00 0.00 0.00 0.00 0.00 0.00
0.04 0.05 0.02 0.03 0.03 0.02 0.02 0.03 0.04 0.06 0.16 0.08 0.03 0.03 0.13 0.05 0.04 0.05 0.02 0.01 0.01 0.03 0.02 0.01 0.03 0.07 0.10 0.10 0.02 0.00 0.00 0.00 0.00 0.00 0.00 0.00 0.00 0.00 0.00 0.00 0.00 0.00 0.00 0.00
0.06 0.05 0.06 0.07 0.03 0.02 0.05 0.05 0.04 0.04 0.03 0.04 0.02 0.01 0.07 0.05 0.04 0.03 0.01 0.02 0.02 0.10 0.05 0.02 0.02 0.04 0.04 0.02 0.00 0.00 0.00 0.00 0.00 0.00 0.01 0.00 0.00 0.00 0.00 0.00 0.00 0.00 0.00 0.00
0.05 0.04 0.07 0.12 0.07 0.10 0.16 0.10 0.03 0.01 0.02 0.01 0.00 0.00 0.05 0.06 0.05 0.07 0.05 0.09 0.08 0.08 0.15 0.04 0.05 0.05 0.02 0.00 0.00 0.00 0.00 0.00 0.00 0.00 0.00 0.00 0.00 0.00 0.00 0.00 0.00 0.00 0.00 0.00
0.01 0.04 0.34 0.33 0.18 0.20 0.16 0.07 0.02 0.02 0.00 0.00 0.00 0.00 0.03 0.15 0.11 0.26 0.11 0.04 0.04 0.08 0.12 0.02 0.04 0.03 0.00 0.00 0.00 0.00 0.00 0.00 0.00 0.00 0.00 0.00 0.00 0.00 0.00 0.00 0.00 0.00 0.00 0.00
0.04 0.22 0.51 0.24 0.13 0.20 0.08 0.03 0.01 0.00 0.00 0.01 0.00 0.01 0.03 0.02 0.01 0.05 0.02 0.01 0.03 0.07 0.07 0.04 0.03 0.01 0.00 0.00 0.00 0.00 0.00 0.00 0.00 0.00 0.00 0.00 0.00 0.00 0.00 0.00 0.00 0.00 0.00 0.00
0.15 0.26 0.31 0.15 0.08 0.03 0.01 0.01 0.02 0.01 0.01 0.01 0.00 0.01 0.02 0.00 0.00 0.01 0.02 0.03 0.02 0.02 0.04 0.05 0.01 0.00 0.00 0.00 0.00 0.00 0.00 0.00 0.00 0.00 0.00 0.00 0.00 0.00 0.00 0.00 0.00 0.00 0.00 0.00
0.18 0.25 0.21 0.05 0.05 0.04 0.04 0.04 0.02 0.01 0.01 0.00 0.01 0.01 0.02 0.00 0.01 0.01 0.04 0.03 0.02 0.01 0.05 0.02 0.02 0.00 0.00 0.00 0.00 0.00 0.00 0.00 0.00 0.00 0.00 0.00 0.00 0.00 0.00 0.00 0.00 0.00 0.00 0.00
0.15 0.19 0.30 0.15 0.07 0.05 0.03 0.04 0.01 0.00 0.01 0.01 0.03 0.01 0.02 0.00 0.01 0.01 0.01 0.04 0.08 0.07 0.01 0.02 0.01 0.00 0.00 0.00 0.00 0.00 0.00 0.00 0.00 0.00 0.00 0.00 0.00 0.00 0.00 0.00 0.00 0.00 0.00 0.00
0.13 0.12 0.16 0.18 0.09 0.04 0.03 0.03 0.02 0.00 0.01 0.02 0.03 0.01 0.01 0.01 0.00 0.00 0.01 0.02 0.01 0.01 0.01 0.01 0.00 0.00 0.00 0.00 0.00 0.00 0.00 0.00 0.00 0.00 0.00 0.00 0.00 0.00 0.00 0.01 0.00 0.00 0.00 0.00